ORCA-1 (44418 NORAD) Tracking and Keplerian Element Data

This shows tracking and keplerian element data for the satellite.

Feedback or suggestion? Click here.




ElementValue
Catalog44418
NameORCA-1
Epoch Orbit3581
Epoch Day88.10554816
Epoch Year2020
RAAN64.0789
Inclination51.6429
Eccentricity0.0012255
Argument of Perigee25.296
Mean Anonmoly334.8619
Mean Motion15.3050158
Decay Rate1.275E-05
L11 44418U 19022H 20088.10554816 .00001275 00000-0 54790-4 0 9997
L22 44418 51.6429 64.0789 0012255 25.2960 334.8619 15.30501580 35812

Live tracking and technical data element details for ORCA-1 (NORAD 44418). ORCA-1 can be tracked NOW for your location showing map with azimuth and elevation plus other details from your city location.

Track the satellite on the map from your city or location and see movement details for azimuth, elevation, latitude, longitude, range, height, and movement on the map or in text.







IsCatalogInMostPopularTable: catalog: 44418, numindb: 14
Update: records affected: 1



GetName: 44418 ORCA-1

Hit Count: updated at: Mon, 30 Mar 2020 06:50:50 GMT